sat.trackr.live / text

‹ back to catalog

STARLINK-2315

NORAD 47789 · 2021-018C

PAYLOAD ACTIVE UNKNOWN

§ Identity

Operator
Country
US
Launch date
2021-03-11
Launch site
AFETR
Launch vehicle
Mass (kg)
RCS (m²)

Purposes: comms

External: N2YO · Heavens-Above · Gunter

§ Orbital elements

Epoch: 2026-09-20T03:45:24.790752Z

Period
94.01 min
Inclination
53.1610°
Eccentricity
0.0001275
Mean motion
15.31699007 rev/d
Perigee alt
469.9 km
Apogee alt
471.6 km
Semi-major
6,848.9 km
B*
-5.2524e-5
RAAN
54.2999°
Arg perigee
88.6759°
Mean anomaly
271.4389°
Rev number
30,656

§ Raw data

STARLINK-23151 47789U 21018C   26263.15653693 -.00001995  00000+0 -52524-4 0  99912 47789  53.1610  54.2999 0001275  88.6759 271.4389 15.31699007306564

JSON: /api/v1/satellites/47789 · /tle

For live sub-satellite position, see the globe view (requires WebGL).

§ Visibility from observer

Set your observer location to see the next 7 days of passes ≥ 10°. The values pass through the URL so the page stays shareable.

No JS? Fill the form by hand. The geolocation button needs JavaScript.